STARLINK-5225 (54063 NORAD) Tracking and Keplerian Element Data

This shows tracking and keplerian element data for the satellite.

Feedback or suggestion? Click here.




ElementValue
Catalog54063
NameSTARLINK-5225
Epoch Orbit548
Epoch Day325.33334491
Epoch Year2022
RAAN352.6604
Inclination53.2171
Eccentricity0.0001838
Argument of Perigee29.9771
Mean Anonmoly156.9295
Mean Motion15.47592657
Decay Rate-0.01206486
L11 54063U 22136N 22325.33334491 -.01206486 00000+0 -25302-1 0 9997
L22 54063 53.2171 352.6604 0001838 29.9771 156.9295 15.47592657 5485



Live tracking and technical data element details for STARLINK-5225 (NORAD 54063). STARLINK-5225 can be tracked NOW for your location showing map with azimuth and elevation plus other details from your city location.







IsCatalogInMostPopularTable: catalog: 54063, numindb: 1
Update: records affected: 1



GetName: 54063 STARLINK-5225

Hit Count: updated at: Mon, 28 Nov 2022 22:04:41 GMT